Sitka, AK

9:57 AM AKDT on May 26, 2018 (GMT -0800)
Sitka Rocky Gutierrez

Weather History for PASI - June, 2013

Change the Weather History Date:

Thursday, June 13, 2013

  Actual Average Record
Temperature  
Mean Temperature 50 °F -  
Max Temperature 51 °F 58 °F 77 °F (1969)
Min Temperature 48 °F 47 °F 40 °F (1965)
Degree Days  
Heating Degree Days 16    
Moisture  
Dew Point 47 °F    
Average Humidity 92    
Maximum Humidity 100    
Minimum Humidity 82    
Precipitation  
Precipitation 0.03 in - - ()
Sea Level Pressure  
Sea Level Pressure 30.16 in    
Wind  
Wind Speed 5 mph (WSW)    
Max Wind Speed 9 mph    
Max Gust Speed -    
Visibility 7 miles    
Events Rain    
Averages and records for this station are not official NWS values.
T = Trace of Precipitation, MM = Missing Value Source: NWS Daily Summary

Daily Weather History Graph

Daily Weather History Graph

Search for Another Location

Airport or City:

Astronomy

Jun. 13, 2013 Rise Set
Actual Time 4:06 AM AKDT 9:57 PM AKDT
Civil Twilight 2:59 AM AKDT 11:04 PM AKDT
Nautical Twilight 1:33 AM AKDT 12:29 AM AKDT
Astronomical Twilight Sun does not set Sun does not set
Moon 9:44 AM AKDT (6/13) No Moon Set
Length of Visible Light 20h 05m
Length of Day
17h 50m
Waxing Crescent, 23% of the Moon is Illuminated
Jun 13
Waxing Crescent
Jun 16
First Quarter
Jun 23
Full
Jun 29
Last Quarter
Jul 7
New

Hourly Weather History & Observations

Time (AKDT) Temp. Dew Point Humidity Pressure Visibility Wind Dir Wind Speed Gust Speed Precip Events Conditions
12:53 AM 51.1 °F 48.9 °F 92% 30.15 in 9.0 mi South 6.9 mph - N/A   Overcast
1:07 AM 51.8 °F 48.2 °F 88% 30.15 in 10.0 mi SSW 8.1 mph - N/A   Overcast
1:25 AM 51.8 °F 48.2 °F 88% 30.15 in 10.0 mi West 4.6 mph - N/A   Overcast
1:53 AM 50.0 °F 48.9 °F 96% 30.15 in 7.0 mi WNW 4.6 mph - 0.00 in Rain Light Rain
2:53 AM 50.0 °F 48.9 °F 96% 30.15 in 5.0 mi WNW 4.6 mph - 0.00 in   Overcast
3:53 AM 48.9 °F 48.9 °F 100% 30.15 in 4.0 mi WNW 4.6 mph - 0.01 in   Overcast
4:46 AM 48.2 °F 48.2 °F 100% 30.15 in 4.0 mi WSW 5.8 mph - 0.01 in Rain Light Rain
4:53 AM 48.9 °F 48.9 °F 100% 30.15 in 4.0 mi WSW 5.8 mph - 0.01 in   Overcast
5:00 AM 48.2 °F 48.2 °F 100% 30.14 in 3.0 mi WSW 5.8 mph - N/A   Overcast
5:21 AM 48.2 °F 48.2 °F 100% 30.14 in 3.0 mi WSW 4.6 mph - N/A   Overcast
5:53 AM 48.9 °F 48.0 °F 97% 30.14 in 5.0 mi SW 4.6 mph - N/A   Overcast
6:07 AM 48.2 °F 48.2 °F 100% 30.14 in 5.0 mi SW 5.8 mph - N/A   Overcast
6:13 AM 48.2 °F 48.2 °F 100% 30.14 in 5.0 mi SW 5.8 mph - N/A   Overcast
6:36 AM 48.2 °F 48.2 °F 100% 30.14 in 5.0 mi WSW 5.8 mph - N/A   Overcast
6:53 AM 48.9 °F 48.0 °F 97% 30.15 in 6.0 mi WSW 5.8 mph - N/A   Overcast
7:30 AM 48.2 °F 48.2 °F 100% 30.15 in 3.0 mi West 5.8 mph - 0.00 in   Light Drizzle
7:41 AM 48.2 °F 48.2 °F 100% 30.15 in 3.0 mi SW 6.9 mph - 0.00 in   Light Drizzle
7:53 AM 48.9 °F 48.0 °F 97% 30.15 in 4.0 mi WSW 6.9 mph - 0.01 in   Light Drizzle
8:53 AM 48.9 °F 48.0 °F 97% 30.15 in 4.0 mi SW 9.2 mph - 0.00 in   Overcast
9:05 AM 48.2 °F 48.2 °F 100% 30.15 in 7.0 mi West 5.8 mph - N/A   Overcast
9:53 AM 50.0 °F 46.9 °F 89% 30.16 in 10.0 mi SW 5.8 mph - N/A   Overcast
10:53 AM 50.0 °F 48.0 °F 93% 30.17 in 9.0 mi Calm Calm - N/A   Overcast
11:53 AM 50.0 °F 46.9 °F 89% 30.18 in 10.0 mi SW 3.5 mph - N/A   Overcast
12:53 PM 51.1 °F 46.9 °F 86% 30.18 in 10.0 mi SW 6.9 mph - N/A   Overcast
1:53 PM 50.0 °F 45.0 °F 83% 30.19 in 10.0 mi WSW 4.6 mph - N/A   Overcast
2:53 PM 51.1 °F 46.0 °F 83% 30.19 in 10.0 mi WSW 5.8 mph - N/A   Overcast
3:53 PM 50.0 °F 45.0 °F 83% 30.19 in 10.0 mi SW 3.5 mph - N/A   Overcast
4:53 PM 50.0 °F 45.0 °F 83% 30.18 in 10.0 mi Calm Calm - N/A   Overcast
5:53 PM 50.0 °F 46.0 °F 86% 30.19 in 10.0 mi WSW 5.8 mph - N/A   Overcast
6:53 PM 50.0 °F 45.0 °F 83% 30.18 in 10.0 mi Calm Calm - N/A   Overcast
7:53 PM 50.0 °F 46.0 °F 86% 30.18 in 10.0 mi Calm Calm - N/A   Overcast
8:23 PM 50.0 °F 44.6 °F 82% 30.18 in 10.0 mi Calm Calm - N/A   Overcast
8:53 PM 50.0 °F 46.0 °F 86% 30.18 in 10.0 mi Calm Calm - N/A   Overcast
9:53 PM 50.0 °F 45.0 °F 83% 30.18 in 10.0 mi Calm Calm - N/A   Overcast
10:32 PM 50.0 °F 44.6 °F 82% 30.17 in 10.0 mi Calm Calm - N/A   Overcast
10:53 PM 50.0 °F 45.0 °F 83% 30.17 in 10.0 mi NW 3.5 mph - N/A   Overcast
11:53 PM 50.0 °F 46.0 °F 86% 30.17 in 10.0 mi Calm Calm - N/A   Overcast